Location: Krakow
(50.0830°N, 19.9170°E)
Time: 19:03:54
(UTC+01:00)

Altair - Pass Details

Date: 07 December 2023
Orbit: 1501 x 1682 km, 47.2° (Epoch: 02 March)

Event Time Altitude Azimuth Distance (km) Brightness Sun altitude
Rises 11:25:09 0° 277° (W) 4,763 10.0 17.3°
Reaches altitude 10° 11:28:17 10° 275° (W) 3,754 9.5 17.3°
Maximum altitude 11:37:38 69° 195° (SSW) 1,617 8.3 17.3°
Drops below altitude 10° 11:46:43 10° 115° (ESE) 3,654 9.8 17.2°
Sets 11:49:43 0° 113° (ESE) 4,629 10.3 17.2°
